Home   Weather   Kolbotn   Past weeks

Flag for Norway Past Weather in Kolbotn, Norway — Yesterday and Last 2 Weeks

Now
48 °F

Broken clouds.


Feels Like: 40 °F
Forecast: 26 / 33 °F
Wind: 29 mph from West

Location: Statfjord B

Current Time: Dec 10, 2016 at 10:08:14 am

Latest Report: Dec 10, 2016 at 9:20 am


Visibility: N/A

Pressure: 29.65 "Hg

Humidity: 82%

Dew Point: 43 °F

Location of KolbotnLocation

Past Weather in Kolbotn — Graph

°F

Kolbotn Temperature Yesterday

Maximum temperature yesterday: 50 °F (at 12:20 am)
Minimum temperature yesterday: 48 °F (at 4:20 am)
Average temperature yesterday: 49 °F

High & Low Weather Summary for the Past Weeks

 TemperatureHumidityPressure
High52 °F (Dec 7, 9:50 pm)100% (Nov 25, 8:20 am)30.51 "Hg (Nov 25, 8:20 am)
Low39 °F (Dec 1, 6:20 pm)42% (Nov 27, 6:50 am)29.36 "Hg (Dec 7, 11:50 pm)
Average47 °F79%30.04 "Hg
* Reported Nov 25 8:20 am — Dec 10 8:50 am, Kolbotn, Weather by CustomWeather, © 2016

Note: Actual official high and low records may vary slightly from our data, if they occured in-between our weather recording intervals... More about our weather records

Advertising

Kolbotn Weather History for the Previous 24 Hours

Scroll right to see more
 ConditionsComfort  
Time TempWeatherWind HumidityBarometerVisibility
8:50 am
Sat, Dec 10
50 °FPassing clouds.28 mph88%29.65 "HgN/A
8:20 am48 °FPassing clouds.23 mph87%29.65 "HgN/A
7:50 am48 °FPassing clouds.22 mph87%29.65 "HgN/A
7:20 am48 °FSprinkles. Passing clouds.26 mph87%29.65 "HgN/A
6:50 am50 °FRain showers. Partly cloudy.31 mph82%29.62 "Hg2 mi
6:20 am50 °FPartly cloudy.35 mph82%29.62 "HgN/A
5:50 am50 °FPassing clouds.30 mph88%29.62 "HgN/A
5:20 am50 °FPassing clouds.29 mph88%29.65 "HgN/A
4:50 am50 °FPassing clouds.28 mph88%29.65 "HgN/A
4:20 am50 °FPassing clouds.28 mph88%29.65 "HgN/A
3:50 am50 °FPassing clouds.29 mph94%29.65 "HgN/A
3:20 am50 °FPassing clouds.30 mph94%29.65 "HgN/A
2:50 am50 °FPassing clouds.30 mph94%29.65 "HgN/A
2:20 am50 °FPassing clouds.30 mph94%29.65 "HgN/A
1:50 am52 °FPartly cloudy.28 mph77%29.68 "HgN/A
1:20 am50 °FPassing clouds.31 mph94%29.68 "HgN/A
12:50 am52 °FPassing clouds.25 mph88%29.68 "HgN/A
12:20 am52 °FPartly cloudy.28 mph88%29.68 "HgN/A
11:50 pm
Fri, Dec 9
50 °FPassing clouds.28 mph94%29.68 "HgN/A
11:20 pm50 °FSprinkles. Passing clouds.28 mph94%29.68 "HgN/A
10:50 pm50 °FPassing clouds.30 mph94%29.68 "HgN/A
10:20 pm50 °FPartly cloudy.26 mph100%29.68 "HgN/A
9:50 pm50 °FPassing clouds.22 mph100%29.71 "HgN/A
9:20 pm48 °FMostly cloudy.17 mph100%29.71 "HgN/A
8:50 pm48 °FPassing clouds.16 mph100%29.71 "HgN/A
8:20 pm48 °FPassing clouds.16 mph100%29.71 "HgN/A
7:50 pm48 °FPassing clouds.20 mph100%29.71 "HgN/A
7:20 pm50 °FPassing clouds.16 mph94%29.71 "HgN/A
6:50 pm50 °FPassing clouds.21 mph94%29.74 "HgN/A
6:20 pm50 °FPartly cloudy.22 mph94%29.74 "HgN/A
5:50 pm48 °FPartly cloudy.20 mph94%29.74 "HgN/A
5:20 pm50 °FPassing clouds.22 mph94%29.74 "HgN/A
4:50 pm50 °FPassing clouds.17 mph94%29.77 "HgN/A
4:20 pm50 °FPartly cloudy.18 mph94%29.80 "HgN/A
3:50 pm50 °FPassing clouds.18 mph94%29.80 "HgN/A
3:20 pm50 °FPartly cloudy.15 mph94%29.83 "HgN/A
2:50 pm50 °FPassing clouds.17 mph94%29.83 "HgN/A
2:20 pm50 °FPartly sunny.15 mph94%29.83 "HgN/A
1:50 pm50 °FPartly sunny.N/A88%29.86 "HgN/A
1:20 pm50 °FPartly sunny.16 mph88%29.86 "HgN/A
12:50 pm50 °FPartly sunny.13 mph88%29.86 "HgN/A
12:20 pm48 °FPartly sunny.10 mph87%29.86 "HgN/A
11:50 am48 °FPartly sunny.10 mph82%29.86 "HgN/A
11:20 am48 °FPartly sunny.7 mph82%29.86 "HgN/A
10:50 am48 °FPartly sunny.12 mph82%29.89 "HgN/A
10:20 am48 °FBroken clouds.13 mph82%29.86 "HgN/A
Weather by CustomWeather, © 2016

See weather overviewHow to use our weather pages